Location: Memphis International Airport Police
(35.0443°N, 89.9815°W)
Time: 05:20:11
(UTC+00:00)

Meteor 1-27 Rocket - Pass Details

Date: 26 September 2023
Orbit: 828 x 910 km, 81.3° (Epoch: 10 December)

Event Time Altitude Azimuth Distance (km) Brightness Sun altitude
Rises 10:41:20 0° 179° (S) 3,356 6.7 -15.0°
Reaches altitude 10° 10:43:44 10° 176° (S) 2,431 6.0 -14.5°
Maximum altitude 10:49:10 66° 96° (E) 911 4.1 -13.4°
Drops below altitude 10° 10:54:44 10° 14° (NNE) 2,484 6.4 -12.3°
Sets 10:57:12 0° 12° (NNE) 3,436 7.1 -11.8°
